Helicity
-7 -9 -14 -15 -7 -2 2 15 24 26 27 32 42 37 42 52 55 81 68 42 44 84 100 76 56 98 142 168 145 40 29 39 35 42 29 61 100 93 224 200 252 248 210 310 266 172 259
3 -3 -10 -20 -19 -16 -8 3 21 26 27 33 42 36 44 66 74 95 88 39 -24 99 86 11 57 74 134 135 44 24 15 32 75 46 40 26 30 29 -25 207 186 223 192 138 104 51 92
1 7 -14 -22 -18 -15 -3 11 24 28 36 37 31 35 46 70 81 99 93 64 55 82 78 39 10 50 36 112 3 43 58 21 20 46 32 44 11 -9 -83 75 86 173 244 282 172 32 268
0 -1 -13 -20 -15 -13 3 19 27 32 39 36 30 37 40 69 85 100 105 112 170 106 28 109 5 102 89 28 33 58 41 14 10 30 19 10 31 12 -24 -47 80 198 174 207 122 140 43
-7 -3 -9 -13 -11 -13 5 20 27 31 43 40 29 34 41 64 76 65 50 100 132 50 12 26 0 58 129 17 -12 34 45 -32 23 31 38 22 69 47 0 -24 81 26 297 166 181 95 64
-9 -7 -2 5 1 3 11 17 22 31 44 46 47 36 55 84 59 50 62 137 92 38 -31 62 86 97 102 30 43 82 -11 16 21 20 43 43 40 50 30 81 167 241 137 241 174 159 113
-8 -14 -12 13 22 17 19 20 21 22 37 40 59 56 75 134 73 81 67 50 130 115 80 73 117 97 81 18 77 45 19 32 46 25 48 84 43 48 118 115 182 203 282 268 170 185 137
8 -10 -22 -12 12 20 21 26 28 21 27 30 53 54 76 155 155 109 118 149 123 42 165 97 142 95 64 48 47 17 83 59 22 -29 -21 15 65 87 69 81 75 158 176 258 192 35 293
20 14 -11 -14 2 12 16 20 25 20 25 44 38 56 46 147 200 125 99 117 7 55 133 187 155 138 103 45 82 57 51 67 47 -12 -9 -27 10 61 58 54 62 118 86 160 130 55 84
9 22 8 4 4 6 8 21 23 16 15 39 48 45 46 128 150 125 134 84 56 14 275 198 155 180 117 64 77 111 88 61 70 72 37 2 51 22 86 48 74 122 65 12 -25 71 214
2 8 12 6 14 8 6 13 26 24 6 21 52 49 94 109 124 128 43 15 59 33 226 84 244 222 47 102 90 107 130 10 44 35 38 62 60 29 98 70 48 51 187 -16 -45 -67 16
-11 8 12 13 9 10 3 5 19 32 27 20 32 55 60 124 127 126 27 23 81 84 254 179 161 144 71 76 69 87 77 56 128 42 83 76 177 5 114 148 35 26 27 100 61 78 26
-22 1 19 18 10 4 3 -3 6 23 30 35 37 64 84 89 123 43 64 43 97 41 36 158 219 146 87 96 128 58 69 46 36 96 54 113 81 68 149 105 34 170 1 159 162 119 86
-1 -3 20 25 15 1 -4 -7 -3 9 20 32 33 89 103 95 99 96 52 -79 -4 207 161 183 157 88 175 164 136 86 44 14 74 92 101 104 110 150 71 65 60 142 197 157 171 191 87
19 17 26 33 22 5 -8 -7 -4 -1 9 28 71 58 95 82 61 65 -61 -92 -38 153 183 180 93 217 196 136 169 137 65 61 115 97 105 106 94 142 108 64 113 77 53 118 189 194 125
12 12 19 26 19 5 -10 -9 -1 -4 10 49 98 87 88 52 68 14 -106 -84 9 97 136 168 186 233 262 178 163 117 114 98 127 69 84 73 100 95 147 98 156 60 78 83 113 123 165
5 10 12 24 21 7 -10 -10 -6 -2 9 84 94 108 103 44 62 -26 -108 -18 31 125 172 195 211 207 223 284 220 202 192 167 104 108 90 138 124 126 89 170 181 119 80 71 94 96 108
13 13 8 16 25 10 -6 -15 -9 4 16 84 90 85 66 58 51 10 23 14 53 77 161 203 224 218 242 223 229 241 223 236 123 74 80 126 136 80 93 167 84 120 98 72 101 103 53
17 10 13 16 23 12 -9 -12 0 17 52 95 91 88 69 40 88 87 59 77 63 82 96 126 193 224 253 226 205 266 214 174 128 105 63 101 118 45 117 143 149 160 138 65 9 25 73
15 13 13 20 22 11 -4 -10 -3 16 70 103 80 93 137 113 60 101 112 122 98 101 105 132 150 225 195 197 242 203 210 183 71 115 48 55 71 28 13 24 77 116 142 111 6 33 23
29 29 18 22 19 11 2 -2 -23 -8 62 92 61 116 137 171 150 145 127 134 127 111 133 153 167 214 238 240 206 225 173 137 110 112 120 56 44 40 48 18 35 42 64 103 56 54 8
48 39 28 26 26 16 15 17 10 -2 77 83 56 114 181 190 168 166 173 194 164 138 142 142 159 119 255 258 269 231 196 198 177 131 132 107 110 51 49 20 64 15 44 26 24 41 12
50 46 39 41 46 24 14 29 48 50 57 68 79 114 139 194 198 191 222 216 201 172 159 156 150 162 195 227 244 144 123 119 154 172 171 128 109 106 80 0 32 29 21 11 -6 17 13
59 51 49 57 65 66 36 20 36 57 60 62 68 96 126 172 192 208 233 221 222 206 194 165 184 195 202 175 165 156 157 138 135 153 181 162 152 107 94 61 54 20 36 -36 -32 -39 -16
73 73 62 49 70 76 67 25 25 64 71 64 64 60 116 174 184 189 231 232 190 191 194 166 169 153 113 123 111 113 194 192 171 167 185 175 165 129 117 84 71 38 26 33 24 5 -15
93 85 86 57 59 66 61 49 13 56 79 80 88 61 107 169 208 221 230 249 236 246 209 152 150 125 133 125 120 144 160 175 185 178 190 182 159 164 151 138 126 89 99 73 30 4 -28
90 97 96 70 60 53 60 50 36 36 80 93 133 85 97 149 190 230 219 246 272 259 257 201 151 159 130 146 157 170 177 192 189 200 188 165 179 203 178 174 110 111 98 92 -10 -19 -7
116 104 93 72 81 74 74 71 42 30 81 101 139 159 132 159 143 185 218 265 278 269 294 247 211 195 178 186 177 177 202 208 200 220 203 201 196 206 231 215 188 144 109 63 82 46 7
75 93 69 89 65 74 86 98 71 47 61 116 136 166 219 264 192 158 151 218 243 255 275 225 217 201 184 205 190 186 209 203 233 202 202 183 208 199 208 219 159 116 94 94 89 81 56
Wind_Speed
72 74 75 77 78 79 78 75 73 71 70 73 73 73 73 69 69 68 69 70 67 73 73 74 71 66 57 70 73 74 69 71 62 66 65 67 72 72 92 91 95 113 115 100 105 96 85
72 74 75 77 79 80 80 79 77 74 74 76 77 75 71 67 68 66 65 66 59 63 75 76 74 61 55 68 70 76 66 76 75 74 73 70 67 67 84 86 99 90 107 120 103 100 94
72 73 76 77 79 81 80 78 77 78 78 77 81 77 71 66 67 62 61 64 67 63 67 90 75 56 59 65 79 78 65 76 80 81 83 75 66 68 61 81 67 88 119 108 119 108 102
71 73 76 78 80 81 79 76 76 78 82 83 82 77 72 68 69 62 53 56 68 65 65 91 79 56 68 70 67 72 70 93 87 80 59 66 57 64 73 68 78 85 101 123 96 118 97
70 73 75 78 79 81 78 73 73 75 79 86 87 82 73 68 68 62 45 40 49 72 59 67 102 62 79 67 77 66 80 81 81 57 55 42 29 53 56 74 85 77 104 120 119 96 109
70 72 75 76 78 79 77 72 70 71 71 77 84 83 74 68 69 66 54 45 45 48 71 60 92 68 82 81 61 56 35 23 54 56 36 33 40 56 58 69 92 83 88 95 124 98 105
70 72 74 74 74 76 74 72 67 66 69 73 76 77 73 63 70 69 55 56 54 49 76 93 84 85 77 63 53 84 63 44 45 53 44 34 37 50 55 63 77 84 81 85 80 99 110
70 72 74 76 75 75 75 72 66 65 66 76 77 78 74 59 69 70 62 67 58 47 65 79 77 76 79 63 63 95 60 62 60 66 52 32 31 45 54 62 68 81 90 88 80 69 88
70 71 73 75 75 77 77 78 73 67 65 69 80 82 77 62 58 67 69 66 48 41 60 82 78 79 83 62 65 58 56 43 54 64 56 46 42 48 52 59 65 74 87 94 82 56 63
70 71 73 72 73 77 79 76 71 67 64 67 75 83 75 65 59 64 61 57 48 40 73 98 91 78 79 67 67 56 39 49 50 45 43 51 51 46 47 44 48 68 67 81 81 74 83
70 72 74 74 73 74 77 78 74 67 61 61 66 77 70 79 63 68 52 49 49 46 112 82 77 58 73 81 54 65 60 39 50 36 42 47 50 44 40 36 44 51 55 66 66 70 70
71 72 74 75 76 76 76 78 75 70 60 56 60 68 70 68 67 63 49 43 57 84 104 84 72 83 90 84 68 55 67 81 46 43 39 35 13 29 39 38 33 45 52 61 57 57 80
72 73 75 76 76 77 78 79 78 73 62 54 53 62 70 66 74 54 53 51 82 115 70 85 86 84 83 86 80 70 69 80 81 55 48 27 42 7 39 23 28 35 37 54 79 80 80
72 74 75 75 75 77 80 82 81 75 65 53 47 58 65 74 62 58 59 77 111 80 81 69 74 80 92 89 79 73 66 79 74 59 38 44 39 45 35 20 29 25 22 35 67 81 75
66 70 73 74 74 77 81 83 82 78 70 51 45 55 65 65 65 66 67 104 92 78 70 74 77 92 94 85 77 80 75 78 64 53 59 44 39 10 33 22 29 28 24 26 34 39 55
68 70 74 75 76 78 82 83 82 81 73 54 49 50 69 59 64 65 87 93 77 66 65 68 91 82 92 88 88 87 86 67 64 55 43 39 40 20 8 18 29 22 30 29 33 41 48
69 72 74 76 76 79 82 83 84 83 71 51 49 50 61 53 55 81 93 81 72 63 64 71 76 78 78 82 80 80 79 61 62 53 44 43 43 36 26 38 29 25 24 29 33 31 45
66 69 73 75 76 79 83 85 87 82 69 57 49 55 53 52 79 72 83 69 62 65 62 63 64 67 71 72 75 77 75 64 62 53 53 44 45 42 45 17 30 35 23 26 33 35 32
64 67 72 75 75 78 83 83 84 78 70 52 50 50 47 59 76 75 66 68 59 64 65 66 69 65 62 65 75 69 65 53 57 65 55 42 50 50 45 37 29 26 34 24 26 30 33
61 65 68 73 76 78 84 84 82 78 63 53 49 57 57 65 62 68 65 71 70 55 58 59 60 61 65 64 58 66 66 56 51 61 53 43 51 53 57 45 12 31 35 33 23 24 30
54 59 61 69 74 78 84 84 89 84 61 53 57 56 54 61 65 63 61 64 70 71 57 57 61 66 67 70 66 64 58 57 54 57 59 55 55 44 37 36 41 43 36 35 31 29 30
51 54 54 62 69 75 81 85 89 88 58 60 54 54 51 52 52 57 59 61 65 62 58 64 64 62 60 64 59 60 55 59 62 54 60 54 57 41 42 33 33 42 44 36 34 34 34
48 52 52 57 63 69 75 80 87 90 66 59 52 47 50 51 52 55 56 56 56 56 50 48 52 58 60 55 44 34 30 31 39 52 57 59 57 55 48 31 31 31 36 43 38 39 38
42 45 47 52 56 62 69 72 76 81 76 60 53 49 54 57 52 51 49 48 49 49 53 50 48 54 50 41 39 43 41 37 39 45 43 56 59 51 54 42 44 30 34 42 40 38 37
36 40 42 46 51 53 62 64 65 66 70 66 55 51 53 54 45 46 44 44 43 44 45 46 46 41 40 46 55 60 59 53 49 47 48 47 54 58 62 55 40 31 28 26 31 33 39
26 33 37 38 44 47 55 58 60 55 56 58 59 50 49 53 47 42 47 43 45 47 45 44 42 40 45 52 57 69 72 63 60 53 44 47 47 55 56 59 55 36 33 29 27 16 43
19 26 28 32 37 43 51 54 54 54 48 52 53 49 49 49 42 41 45 44 41 44 44 43 49 47 47 61 62 64 60 53 63 60 55 52 52 57 55 53 40 27 31 33 26 18 42
16 19 24 27 33 38 45 51 51 47 42 47 49 43 53 46 37 33 36 38 39 39 44 41 46 47 49 63 59 60 54 51 51 46 49 49 52 55 53 54 56 30 31 27 28 36 41
15 17 19 25 27 31 38 46 48 45 48 42 47 44 43 44 41 31 31 28 28 29 35 35 37 40 41 53 51 48 51 43 49 57 38 49 36 43 39 42 31 23 20 19 19 17 33
Wind_Direction
32 31 29 28 29 30 32 37 37 39 38 35 32 29 28 29 28 28 27 27 30 26 24 20 10 4 1 352 343 341 337 334 326 315 300 290 276 268 260 256 252 247 247 252 249 253 255
39 33 29 24 21 21 26 28 33 36 35 33 30 28 29 30 30 30 31 30 30 26 24 16 7 3 3 350 354 345 336 328 320 309 297 288 278 272 262 259 252 251 250 247 251 250 251
37 37 25 21 22 22 27 30 33 33 33 32 29 28 29 32 30 32 36 35 31 30 28 19 18 26 16 2 350 343 341 329 319 307 292 283 276 268 266 259 262 253 246 248 245 246 247
36 31 23 20 22 23 29 33 33 32 31 31 28 29 30 32 31 34 38 38 36 35 33 23 23 29 19 8 5 3 352 318 314 306 300 284 272 267 259 265 263 254 246 241 244 240 243
31 29 23 21 23 21 30 35 35 33 31 27 26 28 31 33 32 32 33 40 38 34 34 27 22 31 20 12 11 10 358 308 300 320 304 297 276 265 263 255 254 249 243 240 240 242 237
27 27 25 28 26 27 31 35 35 34 34 30 28 29 32 35 32 31 38 42 39 40 33 34 27 28 18 15 19 17 355 1 8 330 320 299 277 264 261 252 244 246 246 246 237 237 235
27 25 23 31 34 31 34 35 37 37 35 33 32 32 32 37 35 33 41 37 31 39 35 31 27 27 18 19 30 18 331 45 49 19 337 309 282 266 263 260 254 251 252 248 245 237 239
26 22 18 23 29 31 31 35 38 37 36 33 32 31 32 39 38 37 43 36 39 45 34 33 31 29 24 26 28 11 338 41 40 16 357 353 302 291 277 263 257 249 244 245 249 245 238
22 24 18 23 27 26 27 27 31 34 35 33 31 30 32 39 44 38 42 39 44 59 40 31 29 28 25 28 37 30 342 53 51 20 4 5 317 291 282 264 255 250 242 241 239 246 244
16 21 19 26 27 25 23 28 32 33 33 33 32 30 35 40 42 36 41 38 48 59 37 26 27 32 28 30 40 38 351 59 56 60 58 9 323 303 297 270 261 250 247 239 237 241 239
14 11 15 19 26 26 22 23 27 31 34 35 35 32 38 39 40 37 37 43 49 59 30 21 28 32 25 37 37 37 39 64 57 63 66 48 328 314 314 273 271 256 258 233 232 236 242
11 11 11 16 18 21 22 21 25 28 33 36 38 36 38 39 39 37 40 52 46 42 33 31 29 25 29 35 42 45 44 42 61 65 66 70 49 307 310 254 267 273 249 229 228 234 237
8 9 11 13 15 16 17 18 21 25 30 35 40 39 40 41 33 35 47 49 37 38 34 28 28 27 32 32 39 42 42 45 47 51 54 62 18 341 336 286 249 298 228 224 227 230 233
18 10 12 15 16 14 12 14 17 22 27 34 42 40 41 38 37 40 48 43 38 38 37 33 31 31 36 34 39 40 46 45 48 50 62 58 66 347 327 287 273 260 258 233 224 225 228
30 25 20 20 20 17 11 11 16 19 23 33 44 42 39 35 37 43 46 38 41 40 37 33 34 36 36 37 39 40 45 45 47 46 55 61 72 31 337 290 312 267 263 261 238 235 226
22 25 21 19 19 17 12 12 16 16 21 32 39 41 35 35 42 46 42 46 45 45 40 40 36 38 35 34 38 40 41 46 44 47 59 65 71 69 343 326 332 290 266 247 243 225 228
13 18 21 20 19 16 13 13 14 15 22 37 41 41 35 41 47 41 41 45 44 45 44 41 39 38 38 36 39 41 42 49 43 42 59 66 74 81 97 352 336 318 271 255 249 251 240
15 17 20 21 19 17 12 13 14 18 26 35 43 40 37 44 38 42 41 43 45 43 45 45 43 41 39 38 41 42 42 47 42 43 53 62 70 78 80 115 343 351 307 270 252 252 260
15 14 15 17 20 18 12 17 18 22 27 38 43 43 45 43 36 39 43 43 45 42 42 42 42 43 41 41 40 43 43 47 46 46 51 61 63 67 77 95 339 337 344 310 270 265 277
15 12 14 17 17 17 10 16 19 22 32 40 42 36 37 40 44 40 40 39 38 44 42 43 43 42 38 43 45 41 42 49 45 48 51 74 67 70 72 78 119 336 343 341 316 301 299
25 19 23 20 19 17 10 17 10 16 33 40 38 36 39 31 34 38 41 38 36 37 42 42 41 39 38 39 40 42 46 43 52 49 54 63 60 70 80 82 85 353 342 341 344 322 311
27 26 30 24 22 17 12 16 7 13 36 37 38 35 37 37 38 36 38 36 35 37 40 38 37 35 40 39 40 38 42 47 49 45 51 54 55 67 70 78 86 72 344 333 333 325 316
23 21 26 26 25 19 16 18 12 11 33 35 39 43 38 36 34 33 34 34 35 37 41 40 36 34 36 37 38 38 46 50 47 45 47 49 50 56 59 68 86 79 49 332 324 324 311
26 26 25 23 26 23 19 20 20 21 28 36 38 39 32 28 30 31 32 34 33 34 33 35 38 36 39 34 38 51 54 56 55 52 55 46 48 56 54 65 62 68 40 315 323 324 296
22 21 23 21 22 25 20 21 23 27 28 32 37 35 31 25 29 29 29 29 30 32 32 33 36 39 33 36 39 39 42 46 49 49 50 52 50 48 47 52 64 67 59 50 15 352 294
20 19 19 23 21 23 19 20 20 27 30 31 31 36 30 24 27 28 25 28 26 27 30 33 36 39 39 37 37 34 34 37 39 39 50 48 52 48 45 45 46 61 57 52 12 51 306
10 11 17 20 19 17 13 16 19 22 29 29 30 34 29 22 27 28 24 24 31 28 25 27 27 34 38 32 32 31 33 37 34 32 35 37 42 40 41 42 48 68 60 59 60 40 319
352 360 6 10 10 12 11 11 16 21 27 27 25 33 24 19 18 27 28 24 23 24 21 25 26 32 33 29 31 29 29 32 31 32 33 36 35 37 40 38 38 66 57 57 48 11 324
336 344 354 358 1 5 5 7 11 16 16 22 18 23 23 17 11 20 16 17 18 23 22 29 26 28 34 30 29 31 23 30 25 25 40 32 39 33 40 36 47 57 47 43 38 34 358